Regional Weather Roundup
Issued by NWS

Home | Current Version | Previous Version | Text Only | Print | Product List | Glossary Off
Versions: 1 2 3 4 5 6 7 8 9 10 11 12 13 14 15 16 17 18 19 20 21 22 23 24 25 26 27 28 29 30 31 32 33 34 35 36 37 38 39 40 41 42 43

000
ASUS45 KBOI 271310
RWRID
WEATHER ROUNDUP FOR IDAHO
NATIONAL WEATHER SERVICE BOISE ID
600 AM MST SAT DEC 27 2014

NOTE: "FAIR" INDICATES FEW OR NO CLOUDS BELOW 12000 FEET
WITH NO SIGNIFICANT WEATHER AND/OR OBSTRUCTIONS TO VISIBILITY

IDZ012-014-271400-
SOUTHWEST IDAHO


CITY           SKY/WX    TMP DP  RH WIND       PRES   REMARKS
BOISE          CLEAR     23  16  74 SE7       30.32S WCI  15
CALDWELL       CLEAR     21  12  68 NE6       30.35F WCI  14
MOUNTAIN HOME  CLEAR     19  16  87 E7        30.33F WCI  10
$$

IDZ016-017-271400-
SOUTHCENTRAL IDAHO


CITY           SKY/WX    TMP DP  RH WIND       PRES   REMARKS
BURLEY         CLEAR     19  10  68 SW9       30.28R WCI   8
JEROME         CLEAR     19  13  77 SW5       30.29S WCI  12
TWIN FALLS     CLOUDY    27  16  63 SW12      30.28R WCI  17
$$

IDZ019>023-271400-
SOUTHEAST IDAHO


CITY           SKY/WX    TMP DP  RH WIND       PRES   REMARKS
IDAHO FALLS    CLOUDY     8   4  83 N7        30.27R WCI  -3
POCATELLO      CLOUDY    22  19  89 SW12      30.29R WCI  10
REXBURG        CLOUDY     9   9 100 W8        30.25R FOG     WCI  -3
$$

IDZ006-010-011-018-031-032-271400-
CENTRAL IDAHO MOUNTAINS


CITY           SKY/WX    TMP DP  RH WIND       PRES   REMARKS
MCCALL         CLOUDY    10   8  92 CALM      30.22R
HAILEY         PTCLDY     5   0  78 NW12      30.23F WCI -11
STANLEY          N/A    -10 -17  71 E3        30.21F
SALMON         MOCLDY    19   9  63 NW3       30.25R
CHALLIS        MOCLDY     2  -2  83 CALM      30.25S
$$

IDZ002-004-006-007-026-271400-
NORTHERN IDAHO


CITY           SKY/WX    TMP DP  RH WIND       PRES   REMARKS
LEWISTON       CLOUDY    31  26  82 N3        30.26F
LOWELL           N/A     32  30  92 CALM      30.32F
COEUR D`ALENE  CLOUDY    30  27  86 S6        30.18F WCI  24
MULLAN PASS    LGT SNOW  20  15  81 CALM      30.04R
$$



USA.gov is the U.S. government's official web portal to all federal, state and local government web resources and services.